Location: Copper Breaks State Park
(34.1132°N, 99.7492°W)
Time: 18:27:02
(UTC-05:00)

Amateur Radio Satellites - All Passes

Search period start: 03 September 2015 17:57
Search period end: 04 September 2015 17:57
Location: Copper Breaks State Park, 34.1132°N, 99.7492°W

Satellite Date Start Highest point End Downlink Frequencies (MHz)
Time Altitude Azimuth
Cosmos 2499 03 Sep 18:09:21 18:15:02 19° 278° (W) 18:20:02 435.465 / 435.565
Cubesat XI-IV 03 Sep 18:20:55 18:25:10 26° 69° (ENE) 18:29:33 437.490
SRMSAT 03 Sep 18:25:50 18:29:03 15° 191° (SSW) 18:32:13 437.500
AO-7 03 Sep 18:54:54 18:58:30 12° 272° (W) 19:01:20 29.400- 29.500
MOZHAYETS 4 03 Sep 18:57:05 19:00:48 24° 289° (WNW) 19:04:25
AIST 1 03 Sep 18:57:55 19:00:06 14° 72° (ENE) 19:02:31
CUTE-I 03 Sep 19:03:45 19:09:00 68° 75° (ENE) 19:14:18 437.470
CUBESAT XI-V 03 Sep 19:21:51 19:26:19 46° 99° (E) 19:30:49 437.345
O/OREOS (USA 219) 03 Sep 19:33:09 19:37:37 61° 291° (WNW) 19:42:10 437.305
Cosmos 2491 03 Sep 19:46:58 19:53:42 25° 70° (ENE) 20:00:46 435.465 / 435.565
Cubesat XI-IV 03 Sep 20:00:21 20:05:09 33° 263° (W) 20:09:54 437.490
PRISM 03 Sep 20:02:27 20:05:03 17° 94° (E) 20:07:50 437.425
RS-15 03 Sep 20:02:29 20:09:05 16° 337° (NNW) 20:15:23 29.354- 29.394
CANX-2 03 Sep 20:15:06 20:16:16 11° 68° (ENE) 20:17:43 2200.000
BRITE-PL 03 Sep 20:18:34 20:22:50 57° 75° (ENE) 20:27:29 437.365/2234.400
STRAND 1 03 Sep 20:28:24 20:33:25 56° 101° (E) 20:38:26 437.568
DOVE 4 03 Sep 20:29:18 20:33:02 25° 70° (ENE) 20:37:04 437.250
SEEDS 03 Sep 20:30:25 20:31:51 12° 69° (ENE) 20:33:31 437.485
GOMX 1 03 Sep 20:30:58 20:35:14 44° 73° (ENE) 20:39:51 467.674
HO-68 03 Sep 20:33:38 20:39:56 36° 67° (ENE) 20:46:23 435.675
AIST 1 03 Sep 20:33:55 20:37:58 38° 268° (W) 20:42:00
COMPASS 1 03 Sep 20:46:09 20:48:14 14° 69° (ENE) 20:50:31 437.405
CUTE-I 03 Sep 20:47:39 20:49:40 12° 271° (W) 20:51:17 437.470
CINEMA 3 03 Sep 20:51:38 20:54:49 19° 68° (ENE) 20:58:15 145.822/145.860
AAUSAT CUBESAT 2 03 Sep 20:53:24 20:55:31 14° 69° (ENE) 20:57:48 437.432
CUBESAT XI-V 03 Sep 21:00:42 21:03:25 15° 291° (WNW) 21:05:55 437.345
CUTE 1.7 + AOD 2 03 Sep 21:32:55 21:37:12 89° 78° (ENE) 21:41:30 437.475
PRISM 03 Sep 21:36:56 21:40:34 30° 288° (WNW) 21:44:09 437.425
Cosmos 2491 03 Sep 21:42:36 21:51:12 61° 268° (W) 21:59:45 435.465 / 435.565
ZACube-1 03 Sep 21:42:49 21:45:31 16° 69° (ENE) 21:48:25 437.345
YUBILEINY 03 Sep 21:43:09 21:51:51 73° 94° (E) 22:00:39 435.215
FUNcube-1 03 Sep 21:46:28 21:49:20 17° 69° (ENE) 21:52:22 145.935
CANX-2 03 Sep 21:47:35 21:51:47 52° 261° (W) 21:55:59 2200.000
CUBEBUG 2 03 Sep 21:55:27 21:59:45 39° 73° (ENE) 22:04:12 437.445
UWE-3 03 Sep 21:55:46 21:59:45 30° 72° (ENE) 22:03:52 435.000/436.395/437.385
SEEDS 03 Sep 22:03:08 22:07:16 49° 261° (W) 22:11:23 437.485
DOVE 4 03 Sep 22:06:43 22:10:42 27° 266° (W) 22:14:49 437.250
STRAND 1 03 Sep 22:09:17 22:12:12 15° 294° (WNW) 22:14:54 437.568
GOMX 1 03 Sep 22:11:08 22:13:45 15° 271° (W) 22:16:14 467.674
COMPASS 1 03 Sep 22:19:37 22:23:35 39° 262° (W) 22:27:32 437.405
HO-68 03 Sep 22:21:02 22:27:37 38° 262° (W) 22:34:08 435.675
RS-15 03 Sep 22:24:06 22:28:34 13° 13° (NNE) 22:33:27 29.354- 29.394
Oscar 11 03 Sep 22:26:39 22:31:00 81° 77° (ENE) 22:35:22 145.826/435.025
AAUSAT CUBESAT 2 03 Sep 22:26:52 22:30:48 39° 262° (W) 22:34:43 437.432
DELFI C3 03 Sep 22:27:02 22:30:55 48° 75° (ENE) 22:34:50 145.870
CINEMA 3 03 Sep 22:27:18 22:31:41 39° 263° (W) 22:36:15 145.822/145.860
UKube-1 03 Sep 22:35:25 22:36:15 11° 67° (ENE) 22:37:21 .
AISAT 03 Sep 23:01:58 23:04:38 16° 69° (ENE) 23:07:29 437.250
ESTCUBE 1 03 Sep 23:02:33 23:03:58 12° 67° (ENE) 23:05:40 437.505/2401.250
ZACube-1 03 Sep 23:17:13 23:21:31 41° 262° (W) 23:25:53 437.345
BEESAT 3 03 Sep 23:20:19 23:22:48 16° 50° (NE) 23:25:22 437.485
FUNcube-1 03 Sep 23:21:06 23:25:20 38° 262° (W) 23:29:38 145.935
Cosmos 2504 03 Sep 23:23:01 23:30:27 43° 88° (E) 23:38:22 435.465 / 435.565
UNISAT 6 03 Sep 23:24:48 23:28:20 23° 94° (E) 23:31:54 437.425
VELOX 1 03 Sep 23:27:53 23:31:42 31° 72° (ENE) 23:35:37 145.980
M-CUBED/EXP-1 PRIME 03 Sep 23:30:48 23:31:55 11° 94° (E) 23:33:13 437.505
UWE-3 03 Sep 23:32:41 23:36:18 22° 267° (W) 23:39:50 435.000/436.395/437.385
CUBEBUG 2 03 Sep 23:33:30 23:36:38 17° 269° (W) 23:39:36 437.445
HUMSAT D 03 Sep 23:34:00 23:38:19 71° 259° (W) 23:42:38 437.325/437.525
BEESAT 2 03 Sep 23:37:16 23:40:02 18° 50° (NE) 23:42:54 435.950
YUBILEINY 03 Sep 23:43:16 23:49:39 21° 293° (WNW) 23:55:38 435.215
TIGRISAT 03 Sep 23:51:22 23:55:41 45° 99° (E) 23:59:54 435.000
DUCHIFAT 1 03 Sep 23:53:41 23:56:01 15° 92° (E) 23:58:33 145.980
POLYITAN 1 03 Sep 23:54:53 23:57:34 17° 93° (E) 00:00:24 437.675
POPSAT HIP 1 03 Sep 23:56:04 23:58:45 17° 93° (E) 00:01:36 437.405
DX 1 04 Sep 00:00:31 00:04:47 62° 259° (WSW) 00:09:06 434.975-435.025
UKube-1 04 Sep 00:07:43 00:11:56 57° 259° (W) 00:16:11 .
ANTELSAT 04 Sep 00:09:46 00:14:18 81° 101° (ESE) 00:18:42 437.575/2403.000
SPROUT 04 Sep 00:10:15 00:12:45 16° 69° (ENE) 00:15:25 437.525
NANOSAT C BR1 04 Sep 00:11:30 00:15:02 25° 95° (E) 00:18:37 145.865
QB50P2 04 Sep 00:13:09 00:16:50 28° 96° (E) 00:20:33 145.880/145.840
50 SAT 04 Sep 00:16:10 00:20:01 50° 261° (W) 00:23:52 437.505
QB50P1 04 Sep 00:26:17 00:30:19 39° 98° (E) 00:34:20 145.935-145.965
CUBEBUG 1 04 Sep 00:26:19 00:30:38 90° 256° (WSW) 00:35:00 437.445
CUSAT 1 04 Sep 00:35:22 00:39:12 73° 96° (E) 00:44:26 437.405
RS-15 04 Sep 00:35:39 00:46:10 37° 45° (NE) 00:57:14 29.354- 29.394
ESTCUBE 1 04 Sep 00:36:01 00:40:25 55° 260° (W) 00:44:50 437.505/2401.250
AISAT 04 Sep 00:36:50 00:40:56 37° 262° (W) 00:45:02 437.250
AIST 2 04 Sep 00:37:09 00:39:41 16° 49° (NE) 00:42:21 435.215
PCSat 04 Sep 00:45:49 00:49:07 17° 106° (ESE) 00:52:42 145.827
SO-50 04 Sep 00:48:46 00:53:25 60° 116° (ESE) 00:58:15 436.795
AUBIESAT-1 04 Sep 00:54:32 00:58:13 54° 290° (WNW) 01:01:37 437.475
BEESAT 3 04 Sep 00:57:10 01:00:53 37° 246° (WSW) 01:04:32 437.485
TISAT 1 04 Sep 00:59:09 01:02:51 31° 73° (ENE) 01:06:38 437.305
UNISAT 6 04 Sep 01:01:18 01:05:05 26° 289° (WNW) 01:08:41 437.425
M-CUBED/EXP-1 PRIME 04 Sep 01:03:33 01:07:00 33° 292° (WNW) 01:10:11 437.505
VELOX 1 04 Sep 01:05:07 01:08:19 19° 266° (W) 01:11:23 145.980
BEESAT 2 04 Sep 01:14:32 01:18:11 32° 247° (WSW) 01:21:44 435.950
Cosmos 2504 04 Sep 01:15:21 01:22:46 36° 286° (WNW) 01:30:21 435.465 / 435.565
BUGSAT 1 04 Sep 01:19:55 01:24:12 78° 284° (WNW) 01:28:27 437.445
DUCHIFAT 1 04 Sep 01:28:02 01:31:59 36° 287° (WNW) 01:35:53 145.980
DANDE 04 Sep 01:29:29 01:32:50 40° 286° (WNW) 01:37:14 436.750
TIGRISAT 04 Sep 01:29:39 01:32:02 14° 293° (WNW) 01:34:12 435.000
POLYITAN 1 04 Sep 01:29:41 01:33:34 33° 287° (WNW) 01:37:23 437.675
POPSAT HIP 1 04 Sep 01:30:51 01:34:44 33° 287° (WNW) 01:38:32 437.405
SPROUT 04 Sep 01:44:33 01:48:32 37° 262° (W) 01:52:32 437.525
NANOSAT C BR1 04 Sep 01:47:24 01:50:45 22° 289° (WNW) 01:53:58 145.865
QB50P2 04 Sep 01:49:22 01:52:34 20° 290° (WNW) 01:55:37 145.880/145.840
BEESAT 04 Sep 01:49:39 01:53:01 20° 69° (ENE) 01:56:33 436.000
Oscar 19 04 Sep 01:50:27 01:52:23 12° 90° (E) 01:54:39 437.125/150
VERMONT LUNAR 04 Sep 02:01:23 02:04:06 31° 149° (SSE) 02:06:51 437.305
QB50P1 04 Sep 02:03:23 02:05:51 15° 291° (WNW) 02:08:08 145.935-145.965
AIST 2 04 Sep 02:14:33 02:18:28 41° 246° (WSW) 02:22:18 435.215
SWISSCUBE 04 Sep 02:14:57 02:19:23 41° 73° (ENE) 02:23:52 437.505
PCSat 04 Sep 02:26:55 02:32:10 51° 299° (WNW) 02:37:28 145.827
SO-50 04 Sep 02:31:22 02:34:26 16° 314° (NW) 02:37:23 436.795
GONETS M04 04 Sep 02:32:33 02:39:48 32° 87° (E) 02:47:19
TISAT 1 04 Sep 02:35:54 02:38:42 17° 267° (W) 02:41:23 437.305
RS-15 04 Sep 02:47:43 02:59:33 67° 246° (WSW) 03:11:35 29.354- 29.394
ITUPSAT 1 04 Sep 02:54:53 02:59:40 80° 258° (WSW) 03:04:28 437.325
ITAMSAT 1 04 Sep 02:56:46 02:59:00 13° 90° (E) 03:01:34 435.822/435.867
Gurwin Techsat 1B 04 Sep 02:58:22 03:01:55 19° 92° (E) 03:05:40 435.225
STARS 04 Sep 03:14:04 03:16:03 13° 68° (ENE) 03:18:16 437.465
BEESAT 04 Sep 03:26:18 03:30:39 35° 262° (W) 03:34:59 436.000
Oscar 19 04 Sep 03:27:06 03:32:14 63° 286° (WNW) 03:37:20 437.125/150
VERMONT LUNAR 04 Sep 03:37:36 03:40:28 41° 342° (NNW) 03:43:20 437.305
KKS-1 04 Sep 03:39:18 03:43:32 46° 74° (ENE) 03:47:50 437.445
JAS-2 04 Sep 03:42:10 03:47:23 26° 91° (E) 03:52:17 435.910
PHONESAT 2.4 04 Sep 03:52:06 03:54:46 21° 145° (SE) 03:57:28 2401.200-2431.200
SWISSCUBE 04 Sep 03:54:21 03:57:27 16° 267° (W) 04:00:20 437.505
O/OREOS (USA 219) 04 Sep 04:09:54 04:11:30 12° 56° (NE) 04:13:21 437.305
MOZHAYETS 4 04 Sep 04:19:06 04:21:56 17° 69° (ENE) 04:24:56
GONETS M04 04 Sep 04:28:08 04:36:25 46° 283° (WNW) 04:44:40
ITAMSAT 1 04 Sep 04:33:51 04:38:58 59° 286° (WNW) 04:44:04 435.822/435.867
Gurwin Techsat 1B 04 Sep 04:37:07 04:42:09 44° 288° (WNW) 04:47:09 435.225
Cosmos 2499 04 Sep 04:44:19 04:52:35 64° 92° (E) 05:01:20 435.465 / 435.565
HORYU 2 04 Sep 04:46:58 04:50:08 20° 94° (E) 04:53:25 437.375
STARS 04 Sep 04:47:51 04:52:06 47° 261° (W) 04:56:24 437.465
AO-7 04 Sep 05:02:14 05:09:58 43° 100° (E) 05:17:46 29.400- 29.500
RS-15 04 Sep 05:07:10 05:10:32 11° 260° (W) 05:12:22 29.354- 29.394
VERMONT LUNAR 04 Sep 05:14:50 05:17:17 22° 359° (N) 05:19:44 437.305
KKS-1 04 Sep 05:18:17 05:20:27 13° 269° (W) 05:22:23 437.445
JAS-2 04 Sep 05:26:29 05:32:45 41° 291° (WNW) 05:38:14 435.910
PHONESAT 2.4 04 Sep 05:29:03 05:32:27 66° 339° (NNW) 05:35:51 2401.200-2431.200
O/OREOS (USA 219) 04 Sep 05:46:53 05:51:26 60° 253° (WSW) 05:55:54 437.305
MOZHAYETS 4 04 Sep 05:54:33 05:58:54 39° 262° (W) 06:03:12
CUBESAT XI-V 04 Sep 06:21:54 06:25:48 29° 72° (ENE) 06:29:47 437.345
HORYU 2 04 Sep 06:22:54 06:26:50 30° 288° (WNW) 06:30:39 437.375
Cosmos 2499 04 Sep 06:39:41 06:46:31 25° 292° (WNW) 06:53:13 435.465 / 435.565
Cubesat XI-IV 04 Sep 06:43:09 06:45:28 13° 90° (E) 06:48:06 437.490
VERMONT LUNAR 04 Sep 06:51:20 06:54:08 36° 15° (NNE) 06:56:55 437.305
AO-7 04 Sep 06:55:13 07:02:40 37° 295° (WNW) 07:09:57 29.400- 29.500
ISS 04 Sep 06:58:40 07:00:31 15° 128° (SE) 07:02:29 145.825
PHONESAT 2.4 04 Sep 07:07:40 07:10:40 28° 355° (N) 07:13:39 2401.200-2431.200
CUTE-I 04 Sep 07:24:53 07:29:46 37° 98° (E) 07:34:42 437.470
STRAND 1 04 Sep 07:40:33 07:45:30 54° 74° (ENE) 07:50:29 437.568
YUBILEINY 04 Sep 07:58:51 08:06:10 30° 71° (ENE) 08:13:40 435.215
CUBESAT XI-V 04 Sep 07:59:40 08:03:16 22° 266° (W) 08:06:44 437.345
Cubesat XI-IV 04 Sep 08:20:47 08:26:03 62° 286° (WNW) 08:31:18 437.490
PRISM 04 Sep 08:22:30 08:26:34 71° 258° (WSW) 08:30:39 437.425
BRITE-PL 04 Sep 08:26:36 08:31:30 31° 95° (E) 08:36:30 437.365/2234.400
VERMONT LUNAR 04 Sep 08:27:44 08:30:32 38° 211° (SSW) 08:33:19 437.305
ISS 04 Sep 08:33:38 08:36:42 38° 321° (NW) 08:39:47 145.825
DOVE 4 04 Sep 08:34:48 08:35:24 10° 87° (E) 08:36:25 437.250
GOMX 1 04 Sep 08:36:51 08:40:56 22° 92° (E) 08:45:08 467.674
Cosmos 2491 04 Sep 08:43:30 08:50:47 33° 87° (E) 08:58:19 435.465 / 435.565
PHONESAT 2.4 04 Sep 08:45:55 08:49:03 33° 12° (NNE) 08:52:11 2401.200-2431.200
AIST 1 04 Sep 08:59:07 09:03:16 53° 279° (W) 09:07:26
CUTE-I 04 Sep 09:05:27 09:09:40 24° 291° (WNW) 09:13:45 437.470
STRAND 1 04 Sep 09:22:21 09:25:06 14° 269° (W) 09:27:34 437.568
CUTE 1.7 + AOD 2 04 Sep 09:22:44 09:25:46 20° 94° (E) 09:28:54 437.475
SO-50 04 Sep 09:24:33 09:28:20 22° 50° (NE) 09:32:08 436.795
CANX-2 04 Sep 09:36:45 09:40:34 33° 97° (E) 09:44:22 2200.000
SEEDS 04 Sep 09:51:13 09:55:00 34° 97° (E) 09:58:49 437.485
HO-68 04 Sep 09:52:04 09:59:04 53° 101° (E) 10:06:03 435.675
CUBEBUG 2 04 Sep 09:53:10 09:54:08 11° 88° (E) 09:55:27 437.445
YUBILEINY 04 Sep 09:54:55 10:03:25 52° 269° (W) 10:11:44 435.215
BRITE-PL 04 Sep 10:04:58 10:09:56 32° 288° (WNW) 10:14:52 437.365/2234.400
COMPASS 1 04 Sep 10:06:29 10:10:24 39° 98° (E) 10:14:17 437.405
DOVE 4 04 Sep 10:08:29 10:13:49 76° 282° (WNW) 10:18:58 437.250
AAUSAT CUBESAT 2 04 Sep 10:13:13 10:17:06 39° 98° (E) 10:20:59 437.432
GOMX 1 04 Sep 10:14:01 10:19:11 42° 287° (WNW) 10:24:15 467.674
M-CUBED/EXP-1 PRIME 04 Sep 10:14:07 10:16:30 14° 63° (ENE) 10:19:05 437.505
Oscar 11 04 Sep 10:18:41 10:21:42 19° 93° (E) 10:24:51 145.826/435.025
UNISAT 6 04 Sep 10:20:57 10:23:30 15° 68° (ENE) 10:26:17 437.425
PHONESAT 2.4 04 Sep 10:23:42 10:27:05 67° 208° (SSW) 10:30:27 2401.200-2431.200
CINEMA 3 04 Sep 10:25:44 10:30:41 70° 101° (E) 10:35:24 145.822/145.860
DANDE 04 Sep 10:29:03 10:34:17 19° 67° (ENE) 10:40:10 436.750
Cosmos 2491 04 Sep 10:39:07 10:47:25 46° 283° (WNW) 10:55:39 435.465 / 435.565
TIGRISAT 04 Sep 10:46:22 10:50:17 27° 71° (ENE) 10:54:17 435.000
CUTE 1.7 + AOD 2 04 Sep 10:58:06 11:01:42 27° 288° (WNW) 11:05:11 437.475
NANOSAT C BR1 04 Sep 11:02:04 11:03:46 13° 68° (ENE) 11:05:42 145.865
QB50P2 04 Sep 11:03:47 11:05:56 14° 69° (ENE) 11:08:16 145.880/145.840
SO-50 04 Sep 11:04:27 11:09:03 40° 246° (WSW) 11:13:28 436.795
ANTELSAT 04 Sep 11:04:33 11:09:00 45° 74° (ENE) 11:13:31 437.575/2403.000
Cosmos 2504 04 Sep 11:05:47 11:14:04 64° 80° (E) 11:21:47 435.465 / 435.565
ZACube-1 04 Sep 11:09:36 11:13:55 49° 99° (E) 11:18:06 437.345
FUNcube-1 04 Sep 11:13:07 11:17:27 53° 99° (E) 11:21:39 145.935
CANX-2 04 Sep 11:13:31 11:16:14 16° 290° (WNW) 11:18:48 2200.000
CUSAT 1 04 Sep 11:13:40 11:21:37 56° 77° (ENE) 11:29:29 437.405
QB50P1 04 Sep 11:16:07 11:19:04 19° 70° (ENE) 11:22:09 145.935-145.965
PCSat 04 Sep 11:18:23 11:23:42 56° 61° (ENE) 11:29:02 145.827
HUMSAT D 04 Sep 11:22:25 11:25:47 24° 95° (E) 11:29:10 437.325/437.525
UWE-3 04 Sep 11:25:19 11:29:51 77° 284° (WNW) 11:34:13 435.000/436.395/437.385
CUBEBUG 2 04 Sep 11:26:46 11:31:18 56° 285° (WNW) 11:35:40 437.445
SEEDS 04 Sep 11:27:57 11:30:32 16° 290° (WNW) 11:32:57 437.485
JUGNU 04 Sep 11:30:33 11:33:13 13° 167° (SSE) 11:36:00 437.505
AUBIESAT-1 04 Sep 11:36:49 11:41:34 87° 253° (WSW) 11:46:14 437.475
HO-68 04 Sep 11:40:37 11:46:26 26° 296° (WNW) 11:52:02 435.675
COMPASS 1 04 Sep 11:43:37 11:45:44 13° 291° (WNW) 11:47:38 437.405
DELFI C3 04 Sep 11:44:19 11:48:14 55° 284° (WNW) 11:52:07 145.870
M-CUBED/EXP-1 PRIME 04 Sep 11:46:07 11:50:51 58° 256° (WSW) 11:55:31 437.505
AAUSAT CUBESAT 2 04 Sep 11:50:18 11:52:22 13° 291° (WNW) 11:54:15 437.432
DX 1 04 Sep 11:52:49 11:56:37 29° 97° (E) 12:00:28 434.975-435.025
Oscar 11 04 Sep 11:54:12 11:57:56 29° 288° (WNW) 12:01:36 145.826/435.025
UNISAT 6 04 Sep 11:55:22 11:59:54 47° 261° (W) 12:04:27 437.425
50 SAT 04 Sep 11:55:24 11:58:21 21° 95° (E) 12:01:21 437.505
UKube-1 04 Sep 11:59:02 12:02:52 30° 97° (E) 12:06:43 .
PHONESAT 2.4 04 Sep 12:04:10 12:04:34 10° 219° (SW) 12:04:49 2401.200-2431.200
CINEMA 3 04 Sep 12:05:42 12:07:16 11° 294° (WNW) 12:08:30 145.822/145.860
BUGSAT 1 04 Sep 12:06:13 12:10:01 41° 74° (ENE) 12:13:57 437.445
DANDE 04 Sep 12:10:07 12:18:17 86° 263° (W) 12:26:48 436.750
DUCHIFAT 1 04 Sep 12:15:54 12:20:09 84° 261° (W) 12:24:25 145.980
POLYITAN 1 04 Sep 12:18:09 12:22:25 73° 259° (WSW) 12:26:43 437.675
POPSAT HIP 1 04 Sep 12:19:08 12:23:22 73° 259° (WSW) 12:27:39 437.405
CUBEBUG 1 04 Sep 12:19:28 12:22:54 22° 95° (E) 12:26:25 437.445
TIGRISAT 04 Sep 12:23:06 12:26:58 25° 265° (W) 12:30:47 435.000
AISAT 04 Sep 12:30:42 12:35:06 53° 100° (E) 12:39:30 437.250
ESTCUBE 1 04 Sep 12:32:24 12:36:37 39° 98° (E) 12:40:52 437.505/2401.250
NANOSAT C BR1 04 Sep 12:35:08 12:39:13 46° 261° (W) 12:43:20 145.865
QB50P2 04 Sep 12:37:27 12:41:29 41° 262° (W) 12:45:32 145.880/145.840
ANTELSAT 04 Sep 12:43:18 12:46:02 15° 269° (W) 12:48:33 437.575/2403.000
ZACube-1 04 Sep 12:47:53 12:49:50 12° 293° (WNW) 12:51:32 437.345
SRMSAT 04 Sep 12:49:43 12:50:39 10° 164° (SSE) 12:51:44 437.500
GONETS M04 04 Sep 12:49:56 12:52:25 12° 61° (ENE) 12:55:43
QB50P1 04 Sep 12:51:00 12:54:44 29° 264° (W) 12:58:27 145.935-145.965
FUNcube-1 04 Sep 12:51:40 12:53:18 12° 293° (WNW) 12:54:41 145.935
CUSAT 1 04 Sep 12:56:57 13:03:49 30° 272° (W) 13:10:20 437.405
VELOX 1 04 Sep 12:57:39 13:02:08 76° 283° (WNW) 13:06:35 145.980
HUMSAT D 04 Sep 12:58:07 13:01:24 22° 289° (WNW) 13:04:34 437.325/437.525
Cosmos 2504 04 Sep 12:59:33 13:05:33 21° 277° (W) 13:10:55 435.465 / 435.565
PCSat 04 Sep 13:03:26 13:06:43 16° 254° (WSW) 13:09:43 145.827
Oscar 19 04 Sep 13:03:59 13:06:17 14° 66° (ENE) 13:08:54 437.125/150
JUGNU 04 Sep 13:17:27 13:21:35 19° 176° (S) 13:25:44 437.505
DX 1 04 Sep 13:29:24 13:32:43 20° 290° (WNW) 13:35:53 434.975-435.025
50 SAT 04 Sep 13:29:53 13:32:46 20° 289° (WNW) 13:35:33 437.505
SPROUT 04 Sep 13:34:30 13:38:42 48° 99° (E) 13:42:54 437.525
UKube-1 04 Sep 13:35:39 13:38:48 19° 290° (WNW) 13:41:49 .
BUGSAT 1 04 Sep 13:44:07 13:45:46 12° 269° (W) 13:47:12 437.445
JAS-2 04 Sep 13:54:01 13:54:53 10° 58° (ENE) 13:56:23 435.910
CUBEBUG 1 04 Sep 13:55:28 13:59:13 27° 288° (WNW) 14:02:54 437.445
DANDE 04 Sep 13:55:57 14:00:44 16° 275° (W) 14:05:00 436.750
AISAT 04 Sep 14:09:20 14:11:15 12° 293° (WNW) 14:12:56 437.250
ESTCUBE 1 04 Sep 14:10:21 14:13:12 16° 291° (WNW) 14:15:52 437.505/2401.250
ITAMSAT 1 04 Sep 14:11:22 14:14:05 15° 66° (ENE) 14:17:03 435.822/435.867
Gurwin Techsat 1B 04 Sep 14:15:57 14:19:48 21° 68° (ENE) 14:23:49 435.225
SWISSCUBE 04 Sep 14:20:28 14:22:52 14° 92° (E) 14:25:30 437.505
TISAT 1 04 Sep 14:22:11 14:26:28 82° 283° (WNW) 14:30:43 437.305
SRMSAT 04 Sep 14:35:16 14:39:08 18° 173° (S) 14:43:02 437.500
Oscar 19 04 Sep 14:40:02 14:45:09 64° 259° (W) 14:50:19 437.125/150
GONETS M04 04 Sep 14:42:17 14:51:07 75° 82° (E) 14:59:58
Cosmos 2499 04 Sep 14:42:47 14:47:49 18° 64° (ENE) 14:53:09 435.465 / 435.565
BEESAT 3 04 Sep 14:45:17 14:49:20 88° 294° (WNW) 14:53:26 437.485
RS-15 04 Sep 14:56:57 15:05:11 27° 105° (ESE) 15:14:05 29.354- 29.394
ITUPSAT 1 04 Sep 14:59:30 15:03:49 35° 97° (E) 15:08:11 437.325
BEESAT 2 04 Sep 15:03:34 15:07:38 75° 299° (WNW) 15:11:45 435.950
ISS 04 Sep 15:04:01 15:07:04 36° 39° (NE) 15:10:06 145.825
JUGNU 04 Sep 15:05:58 15:09:58 18° 186° (S) 15:13:54 437.505
SPROUT 04 Sep 15:12:28 15:14:24 12° 292° (WNW) 15:16:05 437.525
BEESAT 04 Sep 15:29:40 15:34:27 79° 102° (ESE) 15:39:13 436.000
JAS-2 04 Sep 15:31:06 15:38:38 61° 73° (ENE) 15:46:22 435.910
KKS-1 04 Sep 15:36:12 15:37:47 12° 91° (E) 15:39:39 437.445
HORYU 2 04 Sep 15:43:04 15:44:51 13° 67° (ENE) 15:46:53 437.375
ITAMSAT 1 04 Sep 15:48:06 15:53:11 57° 260° (W) 15:58:16 435.822/435.867
Gurwin Techsat 1B 04 Sep 15:54:34 15:59:33 40° 262° (W) 16:04:31 435.225
SWISSCUBE 04 Sep 15:56:26 16:01:01 47° 287° (WNW) 16:05:34 437.505
AO-7 04 Sep 15:57:07 16:04:45 43° 66° (ENE) 16:12:30 29.400- 29.500
AIST 2 04 Sep 16:08:13 16:12:26 81° 299° (WNW) 16:16:42 435.215
SRMSAT 04 Sep 16:23:31 16:27:39 20° 183° (S) 16:31:47 437.500
Cosmos 2499 04 Sep 16:33:43 16:42:14 79° 265° (W) 16:50:02 435.465 / 435.565
ITUPSAT 1 04 Sep 16:37:59 16:41:30 20° 291° (WNW) 16:44:53 437.325
STARS 04 Sep 16:41:11 16:45:23 40° 99° (E) 16:49:33 437.465
ISS 04 Sep 16:41:13 16:43:16 15° 232° (SW) 16:45:14 145.825
GONETS M04 04 Sep 16:41:18 16:47:10 19° 277° (W) 16:52:32
JUGNU 04 Sep 16:56:35 16:58:17 11° 195° (SSW) 16:59:52 437.505
RS-15 04 Sep 17:05:52 17:16:44 69° 303° (WNW) 17:28:01 29.354- 29.394
KKS-1 04 Sep 17:10:24 17:14:45 50° 286° (WNW) 17:19:04 437.445
HORYU 2 04 Sep 17:16:41 17:21:05 52° 260° (W) 17:25:29 437.375
JAS-2 04 Sep 17:17:54 17:24:06 25° 269° (W) 17:30:08 435.910
